Vorticity
6 5 5 5 4 5 3 4 4 5 4 3 3 7 8 9 11 11 12 14 7 7 7 10 7 5 6 4 2 2 5 7 8 9 11 14 14 19 20 22 16 13 12
5 5 5 5 4 3 3 4 5 5 3 4 6 7 7 9 9 10 11 8 5 8 8 5 3 3 3 2 3 5 8 10 10 11 12 9 11 11 15 16 15 13 12
5 6 4 4 3 3 4 6 4 5 4 4 8 8 11 10 10 10 9 5 8 6 4 3 3 2 3 6 10 11 11 12 11 9 12 9 5 9 16 13 14 14 13
4 4 4 4 3 5 5 5 5 3 5 9 10 11 10 11 10 10 7 6 6 5 3 2 2 4 8 12 11 7 6 8 13 12 11 11 6 3 8 11 12 15 17
5 4 4 5 5 6 6 5 5 7 6 7 7 7 7 7 7 9 4 5 4 3 2 3 7 14 14 6 2 3 -0 1 5 6 11 9 10 8 5 5 7 13 15
6 5 3 6 7 5 4 4 5 6 9 10 11 13 13 10 8 4 3 3 3 6 11 14 13 10 2 1 5 4 5 7 8 7 6 6 8 10 8 5 6 6 8
4 6 9 7 6 5 4 6 8 10 10 12 14 10 5 4 2 3 4 7 11 11 4 3 5 3 3 1 2 3 3 3 4 4 5 5 6 4 7 10 7 6 6
10 7 5 3 3 5 8 9 9 10 14 8 2 2 4 4 5 8 11 8 6 1 3 2 2 3 5 5 6 6 7 7 7 6 5 5 5 6 6 4 7 8 6
5 3 2 6 9 9 9 11 13 7 2 3 4 8 11 11 9 5 4 4 4 4 4 3 4 4 5 5 6 7 7 8 7 6 6 5 5 7 7 7 5 7 6
4 5 7 7 9 10 11 7 2 3 7 9 9 6 5 6 6 6 6 5 4 3 3 3 4 5 6 6 7 7 7 8 7 7 7 7 5 4 6 8 8 6 6
7 9 9 11 10 5 3 6 9 8 5 5 7 9 8 6 5 5 5 5 5 5 5 5 5 5 6 6 6 6 7 7 6 7 7 6 8 5 4 3 4 8 8
7 11 7 3 6 9 8 6 5 6 7 6 5 4 5 8 7 8 7 6 4 4 6 7 8 10 10 9 8 7 7 5 7 5 6 7 7 6 5 6 6 4 2
6 6 8 6 5 7 7 6 4 3 4 7 7 7 8 8 7 6 6 7 8 10 11 9 7 5 4 6 7 8 9 7 7 7 7 8 8 7 6 6 6 7 4
6 2 5 7 6 4 4 5 6 8 8 8 8 8 8 8 9 9 10 9 6 3 4 5 8 9 9 10 10 9 10 9 7 9 11 9 8 9 8 7 7 5 5
7 5 2 3 5 7 7 7 8 7 7 7 7 7 6 5 4 2 3 6 7 9 11 12 11 11 8 7 7 9 9 10 10 9 8 7 6 7 4 6 8 10 9
4 3 4 5 3 2 3 6 8 9 7 6 6 6 8 9 8 7 8 10 10 9 9 10 11 10 10 11 10 10 10 10 11 13 11 12 10 8 9 7 8 6 12
5 5 5 4 6 8 9 8 8 9 9 9 8 7 7 8 10 10 10 12 14 15 13 13 11 9 10 7 7 7 5 7 8 8 8 9 9 9 8 8 8 8 7
6 7 8 10 11 11 11 10 9 8 7 7 8 8 10 10 11 12 14 13 12 13 15 15 14 11 14 13 13 13 12 9 6 8 9 8 8 6 8 8 6 4 3
12 13 13 11 9 7 7 6 5 5 5 5 5 6 7 8 9 14 16 17 14 13 14 12 13 12 10 12 12 12 12 13 13 14 13 13 12 12 14 18 13 12 10
12 9 7 7 8 7 5 3 4 2 1 3 6 11 17 16 11 9 15 14 14 13 14 13 13 13 13 14 15 15 14 14 13 12 14 14 16 14 12 14 14 15 11
6 6 6 6 6 5 5 5 7 9 6 8 10 12 15 14 16 13 15 12 12 10 12 13 14 14 13 14 15 16 16 17 18 17 18 20 19 21 21 21 21 21 20
5 6 2 3 5 7 8 7 7 5 9 12 14 15 15 13 12 10 13 14 16 17 18 18 20 24 26 26 26 24 23 23 22 21 21 20 21 22 23 23 23 22 22
5 6 6 5 7 9 10 11 14 14 10 13 15 17 12 10 12 13 14 15 17 20 22 23 22 23 26 26 28 28 28 27 26 27 28 28 27 25 25 25 23 21 22
7 7 8 8 7 6 8 15 16 18 18 14 12 11 13 15 16 18 23 23 23 23 22 22 20 24 29 18 6 6 12 17 17 17 19 20 20 18 19 20 22 26 27
10 11 11 9 6 8 7 15 11 9 12 13 15 14 16 20 23 23 26 25 25 21 22 23 20 9 3 10 12 12 12 12 9 6 4 5 7 8 8 8 8 6 5
8 5 2 7 13 12 15 16 14 14 12 11 17 19 21 22 25 25 23 14 13 9 7 6 7 10 11 10 9 10 14 16 15 13 12 13 13 13 12 9 8 9 10
Height
5829 5828 5828 5828 5827 5826 5824 5822 5820 5818 5815 5812 5809 5805 5802 5798 5795 5791 5787 5783 5780 5777 5774 5771 5768 5765 5762 5759 5756 5753 5749 5745 5741 5737 5734 5729 5725 5722 5718 5716 5715 5716 5717
5824 5822 5822 5822 5821 5820 5818 5816 5813 5810 5808 5805 5802 5798 5795 5792 5788 5784 5780 5777 5774 5771 5769 5766 5763 5759 5757 5753 5750 5746 5742 5738 5734 5730 5726 5723 5721 5717 5714 5711 5709 5708 5709
5818 5818 5817 5816 5814 5813 5810 5808 5805 5803 5801 5798 5795 5792 5788 5784 5781 5777 5774 5771 5768 5765 5762 5759 5756 5753 5750 5746 5742 5739 5734 5731 5728 5724 5720 5717 5714 5712 5710 5706 5704 5703 5703
5812 5811 5810 5809 5807 5805 5802 5800 5798 5796 5794 5791 5787 5784 5781 5777 5773 5770 5767 5764 5761 5759 5756 5752 5749 5745 5742 5739 5735 5732 5729 5725 5722 5719 5715 5712 5709 5707 5704 5702 5700 5699 5698
5805 5805 5804 5802 5800 5798 5795 5793 5791 5788 5786 5782 5778 5775 5771 5768 5765 5762 5759 5756 5753 5750 5747 5743 5740 5737 5734 5731 5728 5725 5722 5719 5716 5713 5710 5708 5705 5702 5700 5695 5692 5692 5693
5800 5798 5796 5795 5793 5791 5788 5786 5783 5780 5777 5774 5771 5767 5764 5761 5758 5755 5752 5749 5746 5742 5739 5736 5733 5730 5727 5724 5721 5718 5715 5712 5709 5706 5704 5702 5699 5698 5696 5693 5690 5685 5684
5792 5791 5789 5787 5785 5783 5780 5777 5775 5772 5768 5765 5762 5759 5756 5753 5750 5746 5743 5740 5737 5734 5730 5727 5723 5720 5717 5714 5711 5708 5706 5703 5701 5698 5696 5694 5692 5690 5688 5687 5685 5682 5678
5784 5783 5781 5779 5777 5775 5772 5768 5765 5762 5759 5756 5753 5750 5747 5743 5740 5736 5733 5730 5727 5724 5721 5717 5714 5711 5707 5704 5700 5697 5694 5692 5689 5687 5685 5683 5682 5681 5679 5677 5677 5676 5673
5777 5775 5773 5771 5768 5765 5761 5759 5756 5752 5749 5746 5743 5740 5736 5732 5729 5726 5722 5719 5715 5712 5708 5705 5701 5697 5694 5691 5687 5684 5681 5679 5677 5675 5673 5671 5669 5668 5667 5667 5665 5665 5666
5769 5766 5763 5760 5757 5754 5751 5748 5745 5742 5738 5735 5731 5728 5724 5720 5716 5713 5709 5705 5702 5698 5694 5690 5686 5683 5679 5676 5674 5670 5668 5666 5662 5661 5659 5658 5656 5655 5653 5652 5652 5652 5652
5759 5757 5753 5750 5747 5744 5741 5738 5734 5730 5726 5722 5719 5716 5712 5708 5704 5700 5696 5691 5687 5683 5679 5675 5671 5667 5664 5661 5658 5656 5653 5651 5648 5647 5645 5643 5642 5640 5638 5637 5635 5635 5636
5749 5747 5743 5740 5737 5734 5730 5725 5721 5717 5713 5710 5705 5701 5696 5693 5689 5684 5679 5674 5670 5666 5662 5658 5654 5650 5646 5643 5640 5637 5636 5633 5630 5628 5628 5625 5624 5623 5622 5620 5618 5617 5615
5739 5736 5733 5729 5725 5721 5717 5712 5708 5702 5698 5694 5689 5685 5681 5677 5671 5666 5661 5656 5652 5648 5643 5639 5635 5631 5628 5624 5621 5619 5618 5614 5612 5610 5608 5605 5604 5603 5602 5601 5600 5600 5598
5728 5724 5720 5716 5712 5707 5702 5697 5692 5687 5682 5677 5671 5667 5662 5657 5652 5647 5642 5638 5633 5628 5624 5620 5615 5611 5608 5604 5600 5597 5595 5594 5591 5588 5586 5584 5582 5581 5580 5579 5578 5578 5578
5716 5711 5706 5702 5697 5693 5688 5682 5677 5671 5665 5660 5654 5649 5645 5640 5634 5628 5623 5618 5612 5607 5602 5598 5594 5590 5586 5582 5578 5575 5573 5571 5569 5567 5564 5561 5559 5558 5556 5556 5555 5555 5555
5700 5695 5691 5687 5682 5676 5670 5665 5659 5653 5647 5641 5636 5630 5625 5619 5614 5608 5602 5596 5590 5584 5579 5574 5570 5566 5562 5558 5553 5549 5547 5545 5544 5543 5540 5537 5533 5531 5529 5528 5529 5530 5530
5685 5680 5674 5668 5663 5658 5652 5646 5640 5634 5627 5621 5615 5610 5604 5598 5592 5586 5579 5573 5567 5560 5555 5550 5545 5542 5538 5532 5527 5522 5518 5517 5515 5513 5511 5510 5507 5504 5502 5500 5501 5502 5502
5668 5662 5656 5650 5644 5638 5633 5627 5621 5614 5608 5602 5596 5589 5583 5576 5569 5563 5556 5549 5543 5537 5531 5527 5520 5515 5513 5506 5501 5496 5491 5489 5487 5484 5483 5480 5480 5477 5472 5472 5474 5474 5473
5653 5648 5642 5636 5630 5624 5617 5610 5604 5597 5591 5585 5577 5568 5560 5553 5545 5538 5530 5523 5516 5511 5505 5499 5493 5486 5485 5478 5472 5465 5461 5460 5458 5455 5453 5449 5448 5448 5444 5440 5444 5445 5447
5637 5631 5625 5619 5612 5605 5599 5592 5585 5575 5567 5561 5554 5544 5534 5525 5519 5512 5505 5498 5490 5484 5478 5473 5466 5461 5455 5452 5444 5436 5428 5426 5425 5424 5425 5422 5417 5417 5416 5412 5412 5415 5421
5620 5614 5608 5600 5592 5584 5578 5570 5562 5550 5542 5536 5528 5519 5509 5500 5493 5487 5481 5474 5466 5459 5453 5446 5442 5436 5429 5423 5417 5409 5399 5395 5393 5394 5396 5395 5389 5387 5387 5386 5385 5387 5387
5602 5594 5588 5581 5570 5561 5553 5547 5538 5526 5519 5512 5505 5498 5488 5479 5470 5461 5456 5447 5438 5431 5425 5417 5414 5410 5404 5397 5390 5383 5376 5370 5365 5367 5369 5367 5364 5362 5362 5361 5360 5359 5359
5584 5577 5570 5562 5551 5539 5528 5521 5513 5501 5493 5485 5479 5471 5463 5456 5448 5437 5429 5421 5413 5404 5399 5392 5388 5387 5382 5377 5369 5362 5357 5353 5347 5345 5345 5344 5344 5343 5342 5341 5339 5338 5337
5562 5554 5547 5540 5533 5520 5510 5496 5486 5477 5469 5461 5455 5448 5440 5434 5426 5417 5407 5396 5391 5382 5377 5372 5368 5366 5365 5359 5354 5350 5344 5339 5334 5330 5328 5328 5328 5327 5325 5324 5322 5319 5318
5542 5533 5525 5518 5510 5500 5491 5478 5466 5454 5445 5438 5432 5425 5416 5409 5402 5395 5386 5377 5372 5363 5359 5355 5352 5350 5350 5345 5339 5335 5331 5327 5323 5317 5315 5314 5312 5310 5309 5307 5306 5305 5304
5522 5514 5505 5495 5486 5477 5469 5459 5446 5433 5424 5416 5408 5401 5393 5387 5380 5375 5371 5363 5357 5352 5346 5341 5336 5334 5329 5327 5324 5320 5315 5311 5306 5301 5300 5299 5297 5295 5293 5291 5289 5288 5287